Location: Newark
(43.9494°N, 6.8108°E)
Time: 19:12:55
(UTC+00:00)

OTV 5 (USA 277) - Pass Details

Date: 02 October 2019
Orbit: 310 x 324 km, 54.5° (Epoch: 17 October)

Event Time Altitude Azimuth Distance (km) Brightness Sun altitude
Exits shadow 03:49:38 12° 160° (SSE) 1,109 ? -18.9°
Maximum altitude 03:50:51 15° 130° (SE) 978 ? -18.7°
Drops below altitude 10° 03:52:35 10° 91° (E) 1,238 ? -18.4°
Sets 03:55:03 0° 67° (ENE) 2,074 ? -18.0°
